TimeEDT,TemperatureF,Dew PointF,Humidity,Sea Level PressureIn,VisibilityMPH,Wind Direction,Wind SpeedMPH,Gust SpeedMPH,PrecipitationIn,Events,Conditions,WindDirDegrees,DateUTC
12:15 AM,68.0,66.2,94,30.25,7.0,North,3.5,-,N/A,,Clear,360,2013-09-10 04:15:00
12:35 AM,66.2,66.2,100,30.25,5.0,Calm,Calm,-,N/A,,Clear,0,2013-09-10 04:35:00
12:55 AM,64.4,64.4,100,30.25,2.0,Calm,Calm,-,N/A,,Clear,0,2013-09-10 04:55:00
1:15 AM,64.4,64.4,100,30.26,2.5,Calm,Calm,-,N/A,,Mostly Cloudy,0,2013-09-10 05:15:00
1:35 AM,64.4,64.4,100,30.26,2.5,Calm,Calm,-,N/A,,Overcast,0,2013-09-10 05:35:00
1:55 AM,64.4,64.4,100,30.26,3.0,Calm,Calm,-,N/A,,Mostly Cloudy,0,2013-09-10 05:55:00
2:15 AM,64.4,64.4,100,30.26,3.0,Calm,Calm,-,N/A,,Mostly Cloudy,0,2013-09-10 06:15:00
2:35 AM,64.4,64.4,100,30.26,2.5,Calm,Calm,-,N/A,,Mostly Cloudy,0,2013-09-10 06:35:00
2:55 AM,64.4,64.4,100,30.26,5.0,Calm,Calm,-,N/A,,Scattered Clouds,0,2013-09-10 06:55:00
3:15 AM,64.4,64.4,100,30.26,3.0,Calm,Calm,-,N/A,,Scattered Clouds,0,2013-09-10 07:15:00
3:35 AM,64.4,64.4,100,30.26,5.0,Calm,Calm,-,N/A,,Clear,0,2013-09-10 07:35:00
3:55 AM,62.6,62.6,100,30.27,2.0,Calm,Calm,-,N/A,,Clear,0,2013-09-10 07:55:00
4:15 AM,62.6,62.6,100,30.26,4.0,Calm,Calm,-,N/A,,Scattered Clouds,0,2013-09-10 08:15:00
4:35 AM,62.6,62.6,100,30.27,4.0,Calm,Calm,-,N/A,,Clear,0,2013-09-10 08:35:00
4:55 AM,62.6,62.6,100,30.27,4.0,Calm,Calm,-,N/A,,Clear,0,2013-09-10 08:55:00
5:15 AM,62.6,62.6,100,30.27,3.0,Calm,Calm,-,N/A,,Clear,0,2013-09-10 09:15:00
5:35 AM,62.6,62.6,100,30.28,2.0,Calm,Calm,-,N/A,,Clear,0,2013-09-10 09:35:00
5:55 AM,62.6,62.6,100,30.28,0.8,Calm,Calm,-,N/A,,Mostly Cloudy,0,2013-09-10 09:55:00
6:15 AM,60.8,60.8,100,30.28,1.0,Calm,Calm,-,N/A,,Mostly Cloudy,0,2013-09-10 10:15:00
6:35 AM,60.8,60.8,100,30.29,4.0,Calm,Calm,-,N/A,,Scattered Clouds,0,2013-09-10 10:35:00
6:55 AM,62.6,62.6,100,30.30,3.0,Calm,Calm,-,N/A,,Mostly Cloudy,0,2013-09-10 10:55:00
7:15 AM,60.8,60.8,100,30.30,1.2,Calm,Calm,-,N/A,,Mostly Cloudy,0,2013-09-10 11:15:00
7:35 AM,62.6,62.6,100,30.31,0.2,Calm,Calm,-,N/A,Fog,Fog,0,2013-09-10 11:35:00
7:55 AM,62.6,62.6,100,30.31,0.2,Calm,Calm,-,N/A,Fog,Fog,0,2013-09-10 11:55:00
8:15 AM,64.4,64.4,100,30.31,3.0,Calm,Calm,-,N/A,,Scattered Clouds,0,2013-09-10 12:15:00
8:35 AM,64.4,64.4,100,30.32,5.0,Calm,Calm,-,N/A,,Scattered Clouds,0,2013-09-10 12:35:00
8:55 AM,68.0,64.4,88,30.32,7.0,SW,3.5,-,N/A,,Scattered Clouds,230,2013-09-10 12:55:00
9:15 AM,68.0,66.2,94,30.32,7.0,Calm,Calm,-,N/A,,Scattered Clouds,0,2013-09-10 13:15:00
9:35 AM,69.8,68.0,94,30.32,10.0,Calm,Calm,-,N/A,,Scattered Clouds,0,2013-09-10 13:35:00
9:55 AM,71.6,68.0,88,30.32,10.0,Calm,Calm,-,N/A,,Clear,0,2013-09-10 13:55:00
10:15 AM,71.6,68.0,88,30.33,10.0,Calm,Calm,-,N/A,,Clear,0,2013-09-10 14:15:00
10:35 AM,73.4,68.0,83,30.33,7.0,Calm,Calm,-,N/A,,Clear,0,2013-09-10 14:35:00
10:55 AM,75.2,69.8,83,30.33,10.0,Calm,Calm,-,N/A,,Clear,0,2013-09-10 14:55:00
11:15 AM,75.2,69.8,83,30.33,10.0,Calm,Calm,-,N/A,,Clear,0,2013-09-10 15:15:00
11:35 AM,77.0,69.8,78,30.33,10.0,Calm,Calm,-,N/A,,Clear,0,2013-09-10 15:35:00
11:55 AM,78.8,69.8,74,30.32,10.0,SSW,5.8,-,N/A,,Clear,200,2013-09-10 15:55:00
12:15 PM,80.6,69.8,70,30.32,10.0,South,3.5,-,N/A,,Clear,190,2013-09-10 16:15:00
12:35 PM,80.6,68.0,65,30.31,10.0,Calm,Calm,-,N/A,,Clear,0,2013-09-10 16:35:00
12:55 PM,82.4,68.0,62,30.31,10.0,SSW,4.6,-,N/A,,Clear,210,2013-09-10 16:55:00
1:15 PM,82.4,68.0,62,30.31,10.0,SW,3.5,-,N/A,,Clear,220,2013-09-10 17:15:00
1:35 PM,84.2,68.0,58,30.30,10.0,SW,3.5,-,N/A,,Clear,220,2013-09-10 17:35:00
1:55 PM,82.4,68.0,62,30.30,10.0,SSW,5.8,-,N/A,,Clear,200,2013-09-10 17:55:00
2:15 PM,84.2,64.4,51,30.30,10.0,South,4.6,-,N/A,,Clear,190,2013-09-10 18:15:00
2:35 PM,82.4,68.0,62,30.29,10.0,SE,3.5,-,N/A,,Clear,130,2013-09-10 18:35:00
2:55 PM,84.2,68.0,58,30.28,10.0,Calm,Calm,-,N/A,,Scattered Clouds,0,2013-09-10 18:55:00
3:15 PM,82.4,68.0,62,30.27,10.0,SSE,4.6,-,N/A,,Mostly Cloudy,150,2013-09-10 19:15:00
3:35 PM,84.2,68.0,58,30.27,10.0,Calm,Calm,-,N/A,,Mostly Cloudy,0,2013-09-10 19:35:00
3:55 PM,84.2,68.0,58,30.27,10.0,South,3.5,-,N/A,,Scattered Clouds,170,2013-09-10 19:55:00
4:15 PM,84.2,68.0,58,30.26,10.0,South,3.5,-,N/A,,Scattered Clouds,170,2013-09-10 20:15:00
4:35 PM,84.2,68.0,58,30.26,10.0,South,4.6,-,N/A,,Clear,180,2013-09-10 20:35:00
4:55 PM,82.4,68.0,62,30.25,10.0,SSE,5.8,-,N/A,,Clear,160,2013-09-10 20:55:00
5:15 PM,82.4,68.0,62,30.25,10.0,South,4.6,-,N/A,,Clear,170,2013-09-10 21:15:00
5:35 PM,82.4,69.8,66,30.24,10.0,SSE,5.8,-,N/A,,Clear,160,2013-09-10 21:35:00
5:55 PM,80.6,68.0,65,30.24,10.0,Calm,Calm,-,N/A,,Clear,0,2013-09-10 21:55:00
6:15 PM,80.6,69.8,70,30.25,10.0,Calm,Calm,-,N/A,,Clear,0,2013-09-10 22:15:00
6:35 PM,78.8,69.8,74,30.24,10.0,Calm,Calm,-,N/A,,Clear,0,2013-09-10 22:35:00
6:55 PM,78.8,69.8,74,30.24,10.0,Calm,Calm,-,N/A,,Clear,0,2013-09-10 22:55:00
7:15 PM,77.0,69.8,78,30.25,10.0,Calm,Calm,-,N/A,,Clear,0,2013-09-10 23:15:00
7:35 PM,75.2,69.8,83,30.25,10.0,Calm,Calm,-,N/A,,Clear,0,2013-09-10 23:35:00
7:55 PM,73.4,69.8,88,30.26,10.0,Calm,Calm,-,N/A,,Clear,0,2013-09-10 23:55:00
8:15 PM,73.4,69.8,88,30.26,10.0,Calm,Calm,-,N/A,,Clear,0,2013-09-11 00:15:00
8:35 PM,71.6,69.8,94,30.27,10.0,Calm,Calm,-,N/A,,Clear,0,2013-09-11 00:35:00
8:55 PM,71.6,69.8,94,30.28,10.0,Calm,Calm,-,N/A,,Clear,0,2013-09-11 00:55:00
9:15 PM,71.6,69.8,94,30.29,10.0,Calm,Calm,-,N/A,,Clear,0,2013-09-11 01:15:00
9:35 PM,69.8,68.0,94,30.30,10.0,Calm,Calm,-,N/A,,Clear,0,2013-09-11 01:35:00
9:55 PM,69.8,68.0,94,30.31,10.0,Calm,Calm,-,N/A,,Clear,0,2013-09-11 01:55:00
10:15 PM,69.8,69.8,100,30.31,10.0,Calm,Calm,-,N/A,,Clear,0,2013-09-11 02:15:00
10:35 PM,69.8,69.8,100,30.31,7.0,Calm,Calm,-,N/A,,Clear,0,2013-09-11 02:35:00
10:55 PM,69.8,69.8,100,30.31,5.0,Calm,Calm,-,N/A,,Clear,0,2013-09-11 02:55:00
11:15 PM,69.8,68.0,94,30.31,3.0,Calm,Calm,-,N/A,,Clear,0,2013-09-11 03:15:00
11:35 PM,68.0,68.0,100,30.31,5.0,Calm,Calm,-,N/A,,Clear,0,2013-09-11 03:35:00
11:55 PM,68.0,68.0,100,30.30,5.0,Calm,Calm,-,N/A,,Clear,0,2013-09-11 03:55:00